Location: ??????
(38.3184°N, 23.6932°E)
Time: 22:57:09
(UTC+00:00)

ISS - Visible Passes

Search period start: 04 December 2022 00:00
Search period end: 14 December 2022 00:00
Orbit: 414 x 420 km, 51.6° (Epoch: 04 December)

Date Brightness Start Highest point End Pass type
(mag) Time Alt. Az. Time Alt. Az. Time Alt. Az.
04 Dec -2.8 16:07:43 10° NNW 16:10:41 28° NNE 16:11:47 23° ENE visible
04 Dec -0.4 17:44:28 10° WNW 17:44:45 12° WNW 17:44:45 12° WNW visible
05 Dec -3.3 16:56:05 10° WNW 16:59:23 57° SW 16:59:23 57° SW visible
06 Dec -3.9 16:07:55 10° NW 16:11:15 77° NE 16:14:22 11° SE visible
07 Dec -0.9 16:57:12 10° W 16:59:33 18° SW 17:01:54 10° S visible
08 Dec -1.8 16:08:28 10° WNW 16:11:29 32° SW 16:14:30 10° SSE visible
10 Dec 0.0 16:10:42 10° WSW 16:11:26 11° SW 16:12:09 10° SW visible
